Satellite: NOAA-11 Catalog number: 19531 Epoch time: 13143.49246654 Element set: 366 Inclination: 098.7110 deg RA of node: 227.1067 deg Eccentricity: 0.0010458 Arg of perigee: 336.7077 deg Mean anomaly: 093.3818 deg Mean motion: 14.15015419 rev/day Decay rate: 7.9e-07 rev/day^2 Epoch rev: 27263 Checksum: 300
Satellite: NOAA-12 Catalog number: 21263 Epoch time: 13143.27844269 Element set: 834 Inclination: 098.6981 deg RA of node: 168.8605 deg Eccentricity: 0.0012655 Arg of perigee: 293.0533 deg Mean anomaly: 196.4806 deg Mean motion: 14.25565536 rev/day Decay rate: 7.7e-07 rev/day^2 Epoch rev: 14500 Checksum: 316
Satellite: MET-3/5 Catalog number: 21655 Epoch time: 13143.10468338 Element set: 696 Inclination: 082.5568 deg RA of node: 272.0112 deg Eccentricity: 0.0013569 Arg of perigee: 187.5969 deg Mean anomaly: 172.4950 deg Mean motion: 13.17047808 rev/day Decay rate: -2.03e-06 rev/day^2 Epoch rev: 4663 Checksum: 313
Satellite: MET-2/21 Catalog number: 22782 Epoch time: 13143.82399573 Element set: 746 Inclination: 082.5485 deg RA of node: 122.2521 deg Eccentricity: 0.0020986 Arg of perigee: 277.3729 deg Mean anomaly: 135.1163 deg Mean motion: 13.83704747 rev/day Decay rate: 3.8e-07 rev/day^2 Epoch rev: 99627 Checksum: 329
Satellite: OKEAN-4 Catalog number: 23317 Epoch time: 13143.13220079 Element set: 225 Inclination: 082.5402 deg RA of node: 073.2443 deg Eccentricity: 0.0019670 Arg of perigee: 311.4060 deg Mean anomaly: 176.3050 deg Mean motion: 14.84448467 rev/day Decay rate: 1.263e-05 rev/day^2 Epoch rev: 522 Checksum: 249
Satellite: NOAA-14 Catalog number: 23455 Epoch time: 13143.37497226 Element set: 319 Inclination: 098.8030 deg RA of node: 228.1887 deg Eccentricity: 0.0010402 Arg of perigee: 072.7680 deg Mean anomaly: 347.9871 deg Mean motion: 14.13906569 rev/day Decay rate: 1.07e-06 rev/day^2 Epoch rev: 94886 Checksum: 326
Satellite: NOAA-15 Catalog number: 25338 Epoch time: 13143.45391782 Element set: 740 Inclination: 098.7228 deg RA of node: 133.7953 deg Eccentricity: 0.0010600 Arg of perigee: 193.3687 deg Mean anomaly: 319.4823 deg Mean motion: 14.25219560 rev/day Decay rate: 2.02e-06 rev/day^2 Epoch rev: 78132 Checksum: 300
Satellite: RESURS Catalog number: 25394 Epoch time: 13143.06675638 Element set: 381 Inclination: 098.3594 deg RA of node: 120.1128 deg Eccentricity: 0.0000980 Arg of perigee: 027.7464 deg Mean anomaly: 014.0384 deg Mean motion: 14.24330874 rev/day Decay rate: 1.4e-07 rev/day^2 Epoch rev: 77278 Checksum: 290
Satellite: FENGYUN1 Catalog number: 25730 Epoch time: 13142.92001958 Element set: 878 Inclination: 098.8764 deg RA of node: 102.7442 deg Eccentricity: 0.0026123 Arg of perigee: 114.7553 deg Mean anomaly: 278.7569 deg Mean motion: 14.10495641 rev/day Decay rate: 1.723e-05 rev/day^2 Epoch rev: 72248 Checksum: 311
Satellite: OKEAN-0 Catalog number: 25860 Epoch time: 13143.81463188 Element set: 952 Inclination: 097.9881 deg RA of node: 106.5942 deg Eccentricity: 0.0001215 Arg of perigee: 133.7348 deg Mean anomaly: 256.8198 deg Mean motion: 14.74592531 rev/day Decay rate: 6.63e-06 rev/day^2 Epoch rev: 74476 Checksum: 328
Satellite: NOAA-16 Catalog number: 26536 Epoch time: 13143.26455608 Element set: 218 Inclination: 099.0444 deg RA of node: 195.7813 deg Eccentricity: 0.0010528 Arg of perigee: 200.2117 deg Mean anomaly: 199.3105 deg Mean motion: 14.12875303 rev/day Decay rate: 2.61e-06 rev/day^2 Epoch rev: 65305 Checksum: 281
Satellite: NOAA-17 Catalog number: 27453 Epoch time: 13143.50389714 Element set: 139 Inclination: 098.3127 deg RA of node: 158.8938 deg Eccentricity: 0.0010876 Arg of perigee: 233.5768 deg Mean anomaly: 280.7212 deg Mean motion: 14.24590421 rev/day Decay rate: 5.1e-07 rev/day^2 Epoch rev: 56720 Checksum: 310
Satellite: NOAA-18 Catalog number: 28654 Epoch time: 13143.50211538 Element set: 623 Inclination: 099.0975 deg RA of node: 111.3664 deg Eccentricity: 0.0013169 Arg of perigee: 278.3981 deg Mean anomaly: 230.0725 deg Mean motion: 14.11817651 rev/day Decay rate: 1.33e-06 rev/day^2 Epoch rev: 41257 Checksum: 291
Satellite: NOAA-19 Catalog number: 33591 Epoch time: 13143.44262983 Element set: 807 Inclination: 098.9023 deg RA of node: 085.7040 deg Eccentricity: 0.0014978 Arg of perigee: 136.9837 deg Mean anomaly: 000.6671 deg Mean motion: 14.11504721 rev/day Decay rate: 9.1e-07 rev/day^2 Epoch rev: 22100 Checksum: 289
/EX SB KEPS @ AMSAT $ORB13143.M Orbital Elements 13143.MISC
HR AMSAT ORBITAL ELEMENTS FOR MANNED AND MISCELLANEOUS SATELLITES FROM WA5QGD FORT WORTH,TX May 23, 2013 BID: ORB13143.M TO ALL RADIO AMATEURS BT
Satellite: HUBBLE Catalog number: 20580 Epoch time: 13142.83261519 Element set: 245 Inclination: 028.4705 deg RA of node: 079.0441 deg Eccentricity: 0.0003363 Arg of perigee: 080.8805 deg Mean anomaly: 311.4228 deg Mean motion: 15.03614807 rev/day Decay rate: 1.895e-05 rev/day^2 Epoch rev: 6587 Checksum: 280
Satellite: ISS Catalog number: 25544 Epoch time: 13143.83088981 Element set: 866 Inclination: 051.6494 deg RA of node: 229.1061 deg Eccentricity: 0.0009556 Arg of perigee: 349.8331 deg Mean anomaly: 111.0513 deg Mean motion: 15.50459677 rev/day Decay rate: 1.3979e-04 rev/day^2 Epoch rev: 83092 Checksum: 322
Satellite: CO-58 Catalog number: 28895 Epoch time: 13143.63365652 Element set: 482 Inclination: 097.8727 deg RA of node: 000.1538 deg Eccentricity: 0.0018462 Arg of perigee: 155.6480 deg Mean anomaly: 204.5598 deg Mean motion: 14.61098531 rev/day Decay rate: 8.17e-06 rev/day^2 Epoch rev: 40335 Checksum: 326
Satellite: FALCON Catalog number: 30776 Epoch time: 13142.82830265 Element set: 618 Inclination: 035.4318 deg RA of node: 357.8450 deg Eccentricity: 0.0000358 Arg of perigee: 074.4479 deg Mean anomaly: 352.6963 deg Mean motion: 15.10484074 rev/day Decay rate: 4.935e-05 rev/day^2 Epoch rev: 34158 Checksum: 308
Satellite: MAST Catalog number: 31126 Epoch time: 13142.57267419 Element set: 760 Inclination: 097.8801 deg RA of node: 139.9585 deg Eccentricity: 0.0094622 Arg of perigee: 132.2107 deg Mean anomaly: 015.3294 deg Mean motion: 14.54551705 rev/day Decay rate: 6.33e-06 rev/day^2 Epoch rev: 32359 Checksum: 294
Satellite: CAPE1 Catalog number: 31130 Epoch time: 13142.71276869 Element set: 768 Inclination: 097.8968 deg RA of node: 136.4333 deg Eccentricity: 0.0101774 Arg of perigee: 147.0367 deg Mean anomaly: 213.7232 deg Mean motion: 14.53459860 rev/day Decay rate: 6.99e-06 rev/day^2 Epoch rev: 32307 Checksum: 318
Satellite: COMPASS Catalog number: 32787 Epoch time: 13143.14689099 Element set: 629 Inclination: 097.7545 deg RA of node: 202.3563 deg Eccentricity: 0.0015116 Arg of perigee: 032.0235 deg Mean anomaly: 328.1896 deg Mean motion: 14.85426012 rev/day Decay rate: 2.892e-05 rev/day^2 Epoch rev: 27424 Checksum: 307
Satellite: AAUSAT2 Catalog number: 32788 Epoch time: 13143.16327481 Element set: 616 Inclination: 097.7556 deg RA of node: 202.9807 deg Eccentricity: 0.0014661 Arg of perigee: 032.1069 deg Mean anomaly: 328.1036 deg Mean motion: 14.85880400 rev/day Decay rate: 3.683e-05 rev/day^2 Epoch rev: 27428 Checksum: 305
Satellite: DO-64 Catalog number: 32789 Epoch time: 13143.78367443 Element set: 645 Inclination: 097.7702 deg RA of node: 207.2162 deg Eccentricity: 0.0013774 Arg of perigee: 023.8767 deg Mean anomaly: 072.0394 deg Mean motion: 14.88431911 rev/day Decay rate: 5.352e-05 rev/day^2 Epoch rev: 27449 Checksum: 330
Satellite: CO-66 Catalog number: 32791 Epoch time: 13142.29970817 Element set: 613 Inclination: 097.7549 deg RA of node: 200.9279 deg Eccentricity: 0.0015718 Arg of perigee: 035.8673 deg Mean anomaly: 028.4637 deg Mean motion: 14.84574672 rev/day Decay rate: 2.333e-05 rev/day^2 Epoch rev: 27403 Checksum: 336
Satellite: RS-30 Catalog number: 32953 Epoch time: 13143.83384684 Element set: 878 Inclination: 082.5012 deg RA of node: 083.3342 deg Eccentricity: 0.0017522 Arg of perigee: 288.8441 deg Mean anomaly: 071.0738 deg Mean motion: 12.43034126 rev/day Decay rate: 1.0e-07 rev/day^2 Epoch rev: 22688 Checksum: 287
Satellite: METEOR-M Catalog number: 35865 Epoch time: 13143.87824133 Element set: 474 Inclination: 098.6040 deg RA of node: 196.8961 deg Eccentricity: 0.0002912 Arg of perigee: 129.0889 deg Mean anomaly: 231.0543 deg Mean motion: 14.21886506 rev/day Decay rate: 1.5e-07 rev/day^2 Epoch rev: 19101 Checksum: 296
Satellite: RS-38 Catalog number: 35869 Epoch time: 13143.70463052 Element set: 441 Inclination: 098.5980 deg RA of node: 196.6482 deg Eccentricity: 0.0004975 Arg of perigee: 136.0994 deg Mean anomaly: 224.0580 deg Mean motion: 14.22128772 rev/day Decay rate: 7.8e-07 rev/day^2 Epoch rev: 19101 Checksum: 317
Satellite: JUGNU Catalog number: 37839 Epoch time: 13143.15504439 Element set: 392 Inclination: 019.9615 deg RA of node: 098.4541 deg Eccentricity: 0.0019271 Arg of perigee: 008.4820 deg Mean anomaly: 110.5282 deg Mean motion: 14.12154767 rev/day Decay rate: 4.40e-06 rev/day^2 Epoch rev: 8335 Checksum: 284
Satellite: SRMSAT Catalog number: 37841 Epoch time: 13143.32642503 Element set: 394 Inclination: 019.9716 deg RA of node: 108.9791 deg Eccentricity: 0.0011921 Arg of perigee: 325.5815 deg Mean anomaly: 185.0639 deg Mean motion: 14.10224886 rev/day Decay rate: 4.04e-06 rev/day^2 Epoch rev: 8326 Checksum: 291
Satellite: RAX-2 Catalog number: 37853 Epoch time: 13142.60538277 Element set: 508 Inclination: 101.7159 deg RA of node: 344.3874 deg Eccentricity: 0.0235846 Arg of perigee: 100.8459 deg Mean anomaly: 294.2837 deg Mean motion: 14.83431001 rev/day Decay rate: 6.764e-05 rev/day^2 Epoch rev: 8465 Checksum: 317
